OMD206 KLAX-KMZJ

Flight info

Callsign OMD206
Flight time 1h 4m
Altitude 33000
Route DOTSS2 CNERY BLH J169 TFD
Aircraft A320/M-SDE3FGHIRWY/LB1

Departure

Time 2026-05-07 22:07
Airport Los Angeles International Airport (KLAX)

Arrival

Time 2026-05-07 23:11
Airport Pinal Airpark (KMZJ)
Time Latitude Longitude Altitude Speed Heading
2026-05-07 21:41 33.94246 -118.43331 93 ft 0 kts 74°
2026-05-07 21:52 33.94243 -118.43345 93 ft 4 kts 74°
2026-05-07 21:52 33.94237 -118.43371 92 ft 4 kts 73°
2026-05-07 21:52 33.94233 -118.43385 92 ft 0 kts 60°
2026-05-07 21:53 33.94223 -118.43401 93 ft 4 kts 32°
2026-05-07 21:53 33.94202 -118.43405 93 ft 3 kts 330°
2026-05-07 21:53 33.94186 -118.43394 93 ft 0 kts 330°
2026-05-07 21:56 33.94189 -118.43394 93 ft 1 kts 350°
2026-05-07 21:56 33.94192 -118.43387 95 ft 1 kts 60°
2026-05-07 21:56 33.94188 -118.43382 95 ft 1 kts 127°
2026-05-07 21:56 33.94182 -118.43377 95 ft 0 kts 136°
2026-05-07 21:57 33.94179 -118.43373 94 ft 3 kts 136°
2026-05-07 21:58 33.94154 -118.43343 92 ft 7 kts 126°
2026-05-07 21:58 33.94155 -118.43268 95 ft 11 kts 82°
2026-05-07 21:58 33.94168 -118.43156 93 ft 16 kts 82°
2026-05-07 21:58 33.94180 -118.43022 93 ft 16 kts 83°
2026-05-07 21:59 33.94196 -118.42872 93 ft 20 kts 82°
2026-05-07 21:59 33.94200 -118.42726 93 ft 12 kts 126°
2026-05-07 21:59 33.94121 -118.42702 95 ft 14 kts 174°
2026-05-07 21:59 33.94004 -118.42685 94 ft 19 kts 173°
2026-05-07 22:00 33.93857 -118.42664 93 ft 23 kts 173°
2026-05-07 22:00 33.93715 -118.42643 96 ft 9 kts 173°
2026-05-07 22:00 33.93650 -118.42633 95 ft 12 kts 172°
2026-05-07 22:00 33.93617 -118.42543 93 ft 15 kts 84°
2026-05-07 22:01 33.93632 -118.42399 93 ft 20 kts 83°
2026-05-07 22:01 33.93651 -118.42219 95 ft 24 kts 82°
2026-05-07 22:01 33.93675 -118.42005 97 ft 28 kts 82°
2026-05-07 22:01 33.93703 -118.41759 96 ft 32 kts 84°
2026-05-07 22:02 33.93728 -118.41473 95 ft 37 kts 83°
2026-05-07 22:02 33.93756 -118.41201 95 ft 34 kts 83°
2026-05-07 22:02 33.93784 -118.40918 95 ft 34 kts 83°
2026-05-07 22:02 33.93816 -118.40620 94 ft 38 kts 82°
2026-05-07 22:03 33.93848 -118.40311 96 ft 30 kts 83°
2026-05-07 22:03 33.93873 -118.40078 96 ft 27 kts 82°
2026-05-07 22:03 33.93899 -118.39833 98 ft 32 kts 85°
2026-05-07 22:03 33.93923 -118.39556 95 ft 35 kts 83°
2026-05-07 22:04 33.93955 -118.39242 95 ft 38 kts 82°
2026-05-07 22:04 33.93986 -118.38945 94 ft 35 kts 83°
2026-05-07 22:04 33.94016 -118.38662 96 ft 33 kts 83°
2026-05-07 22:04 33.94043 -118.38400 98 ft 32 kts 83°
2026-05-07 22:05 33.94063 -118.38206 95 ft 19 kts 83°
2026-05-07 22:05 33.94078 -118.38062 93 ft 11 kts 82°
2026-05-07 22:05 33.94070 -118.38011 93 ft 2 kts 164°
2026-05-07 22:05 33.94041 -118.38001 96 ft 7 kts 164°
2026-05-07 22:06 33.93991 -118.38021 94 ft 10 kts 237°
2026-05-07 22:06 33.93973 -118.38139 95 ft 27 kts 263°
2026-05-07 22:06 33.93915 -118.38700 97 ft 108 kts 263°
2026-05-07 22:06 33.93800 -118.39802 464 ft 139 kts 263°
2026-05-07 22:07 33.93692 -118.40957 1316 ft 141 kts 263°
2026-05-07 22:07 33.93571 -118.42149 2081 ft 153 kts 262°
2026-05-07 22:07 33.93429 -118.43520 2693 ft 176 kts 263°
2026-05-07 22:07 33.93257 -118.45116 3046 ft 212 kts 261°
2026-05-07 22:08 33.92542 -118.46905 3100 ft 265 kts 233°
2026-05-07 22:08 33.91343 -118.48683 4032 ft 274 kts 233°
2026-05-07 22:08 33.90138 -118.50458 5183 ft 271 kts 232°
2026-05-07 22:08 33.88921 -118.52193 6476 ft 272 kts 231°
2026-05-07 22:09 33.87674 -118.53870 7557 ft 279 kts 224°
2026-05-07 22:09 33.85975 -118.55185 8602 ft 290 kts 202°
2026-05-07 22:09 33.84011 -118.55715 9631 ft 298 kts 181°
2026-05-07 22:09 33.81913 -118.55433 10425 ft 314 kts 166°
2026-05-07 22:10 33.79694 -118.54840 10876 ft 339 kts 166°
2026-05-07 22:10 33.77310 -118.54173 11272 ft 364 kts 165°
2026-05-07 22:10 33.74808 -118.53343 11862 ft 378 kts 158°
2026-05-07 22:10 33.72444 -118.51930 12732 ft 381 kts 146°
2026-05-07 22:11 33.70369 -118.49954 13647 ft 383 kts 133°
2026-05-07 22:11 33.68683 -118.47468 14444 ft 384 kts 121°
2026-05-07 22:11 33.67495 -118.44596 15228 ft 386 kts 109°
2026-05-07 22:11 33.66601 -118.41538 16007 ft 389 kts 108°
2026-05-07 22:12 33.65694 -118.38457 16791 ft 393 kts 108°
2026-05-07 22:12 33.64868 -118.35315 17567 ft 396 kts 101°
2026-05-07 22:12 33.64474 -118.32034 18362 ft 398 kts 91°
2026-05-07 22:12 33.64451 -118.28699 19046 ft 402 kts 88°
2026-05-07 22:13 33.64459 -118.25329 19733 ft 406 kts 88°
2026-05-07 22:13 33.64465 -118.21952 20404 ft 411 kts 88°
2026-05-07 22:13 33.64468 -118.18492 21042 ft 416 kts 88°
2026-05-07 22:13 33.64471 -118.14995 21657 ft 421 kts 88°
2026-05-07 22:14 33.64472 -118.11463 22250 ft 426 kts 88°
2026-05-07 22:14 33.64469 -118.07883 22827 ft 431 kts 88°
2026-05-07 22:14 33.64464 -118.04270 23399 ft 435 kts 88°
2026-05-07 22:14 33.64460 -118.00614 23905 ft 439 kts 88°
2026-05-07 22:15 33.64456 -117.96932 24388 ft 443 kts 88°
2026-05-07 22:15 33.64447 -117.93218 24891 ft 446 kts 88°
2026-05-07 22:15 33.64436 -117.89476 25402 ft 449 kts 88°
2026-05-07 22:15 33.64425 -117.85761 25899 ft 452 kts 88°
2026-05-07 22:16 33.64395 -117.81974 26399 ft 455 kts 91°
2026-05-07 22:16 33.64010 -117.78177 26883 ft 461 kts 99°
2026-05-07 22:16 33.63173 -117.74428 27368 ft 466 kts 104°
2026-05-07 22:16 33.62246 -117.70696 27853 ft 469 kts 104°
2026-05-07 22:17 33.61314 -117.66933 28360 ft 472 kts 104°
2026-05-07 22:17 33.60375 -117.63143 28833 ft 475 kts 104°
2026-05-07 22:17 33.59447 -117.59390 29392 ft 475 kts 104°
2026-05-07 22:17 33.58496 -117.55550 30131 ft 473 kts 104°
2026-05-07 22:18 33.57573 -117.51814 30752 ft 471 kts 104°
2026-05-07 22:18 33.55720 -117.44318 32029 ft 467 kts 104°
2026-05-07 22:18 33.54792 -117.40591 32643 ft 466 kts 104°
2026-05-07 22:19 33.53864 -117.36862 32968 ft 465 kts 104°
2026-05-07 22:19 33.52026 -117.29505 33043 ft 457 kts 104°
2026-05-07 22:20 33.50548 -117.22137 33032 ft 452 kts 93°
2026-05-07 22:20 33.50379 -117.14622 33024 ft 451 kts 88°
2026-05-07 22:21 33.50284 -117.07096 33016 ft 452 kts 88°
2026-05-07 22:21 33.50167 -116.99602 33017 ft 452 kts 88°
2026-05-07 22:22 33.50051 -116.92064 33005 ft 452 kts 88°
2026-05-07 22:22 33.49942 -116.84525 33017 ft 452 kts 88°
2026-05-07 22:23 33.49825 -116.76980 33019 ft 452 kts 88°
2026-05-07 22:23 33.49701 -116.69443 32995 ft 452 kts 88°
2026-05-07 22:24 33.49578 -116.61966 32966 ft 451 kts 88°
2026-05-07 22:24 33.49440 -116.54453 32982 ft 451 kts 88°
2026-05-07 22:25 33.49297 -116.46932 32951 ft 451 kts 88°
2026-05-07 22:25 33.49163 -116.39410 32950 ft 450 kts 88°
2026-05-07 22:26 33.49060 -116.31948 32926 ft 450 kts 88°
2026-05-07 22:26 33.48954 -116.24439 32892 ft 450 kts 88°
2026-05-07 22:27 33.48837 -116.16938 32888 ft 449 kts 88°
2026-05-07 22:27 33.48707 -116.09470 32883 ft 448 kts 88°
2026-05-07 22:28 33.49152 -116.02074 32894 ft 442 kts 75°
2026-05-07 22:28 33.51050 -115.95104 32878 ft 440 kts 68°
2026-05-07 22:29 33.53065 -115.88231 32899 ft 439 kts 68°
2026-05-07 22:29 33.55075 -115.81323 32900 ft 438 kts 68°
2026-05-07 22:30 33.57076 -115.74422 32906 ft 438 kts 68°
2026-05-07 22:30 33.59082 -115.67518 32908 ft 438 kts 68°
2026-05-07 22:31 33.61078 -115.60621 32919 ft 438 kts 70°
2026-05-07 22:31 33.61681 -115.57033 32914 ft 443 kts 83°
2026-05-07 22:31 33.61700 -115.54578 32913 ft 445 kts 88°
2026-05-07 22:32 33.61488 -115.45926 32906 ft 446 kts 88°
2026-05-07 22:32 33.61295 -115.38479 32905 ft 446 kts 88°
2026-05-07 22:33 33.61141 -115.32246 32921 ft 446 kts 88°
2026-05-07 22:33 33.60953 -115.24848 32918 ft 445 kts 88°
2026-05-07 22:34 33.60757 -115.17420 32915 ft 445 kts 88°
2026-05-07 22:34 33.60565 -115.09995 32906 ft 445 kts 88°
2026-05-07 22:35 33.60366 -115.02618 32906 ft 445 kts 88°
2026-05-07 22:35 33.60159 -114.95197 32929 ft 444 kts 88°
2026-05-07 22:36 33.59953 -114.87795 32922 ft 444 kts 88°
2026-05-07 22:36 33.59736 -114.80386 32915 ft 443 kts 88°
2026-05-07 22:37 33.59447 -114.72997 32907 ft 444 kts 90°
2026-05-07 22:37 33.58807 -114.65606 32903 ft 445 kts 92°
2026-05-07 22:38 33.58043 -114.58279 32901 ft 445 kts 92°
2026-05-07 22:38 33.57329 -114.50896 32896 ft 445 kts 92°
2026-05-07 22:39 33.56678 -114.43517 32888 ft 445 kts 91°
2026-05-07 22:39 33.56030 -114.36138 32899 ft 445 kts 92°
2026-05-07 22:40 33.55360 -114.28763 32897 ft 444 kts 92°
2026-05-07 22:40 33.54677 -114.21448 32898 ft 444 kts 92°
2026-05-07 22:41 33.53983 -114.14086 32899 ft 444 kts 92°
2026-05-07 22:41 33.53290 -114.06729 32912 ft 444 kts 92°
2026-05-07 22:42 33.52605 -113.99370 32916 ft 443 kts 92°
2026-05-07 22:42 33.51922 -113.92078 32927 ft 443 kts 92°
2026-05-07 22:43 33.51220 -113.84738 32946 ft 443 kts 92°
2026-05-07 22:43 33.50514 -113.77388 32965 ft 443 kts 92°
2026-05-07 22:44 33.49813 -113.70053 33000 ft 442 kts 92°
2026-05-07 22:44 33.49104 -113.62732 33004 ft 442 kts 92°
2026-05-07 22:45 33.48386 -113.55414 32998 ft 442 kts 92°
2026-05-07 22:45 33.47682 -113.48224 32990 ft 442 kts 92°
2026-05-07 22:46 33.46955 -113.40909 32911 ft 442 kts 92°
2026-05-07 22:46 33.45775 -113.33670 32912 ft 449 kts 104°
2026-05-07 22:47 33.43185 -113.26818 32904 ft 452 kts 110°
2026-05-07 22:47 33.40499 -113.20027 32899 ft 451 kts 110°
2026-05-07 22:48 33.37834 -113.13286 32887 ft 450 kts 110°
2026-05-07 22:48 33.35154 -113.06514 32895 ft 450 kts 109°
2026-05-07 22:49 33.32473 -112.99750 32894 ft 449 kts 110°
2026-05-07 22:49 33.29791 -112.92993 32910 ft 449 kts 109°
2026-05-07 22:50 33.27105 -112.86242 32903 ft 449 kts 109°
2026-05-07 22:50 33.24436 -112.79548 32896 ft 449 kts 109°
2026-05-07 22:51 33.21741 -112.72804 32802 ft 448 kts 109°
2026-05-07 22:51 33.20396 -112.69449 31992 ft 447 kts 109°
2026-05-07 22:51 33.19053 -112.66100 30971 ft 450 kts 110°
2026-05-07 22:51 33.17696 -112.62710 29902 ft 453 kts 110°
2026-05-07 22:52 33.16330 -112.59296 28598 ft 457 kts 110°
2026-05-07 22:52 33.14957 -112.55863 27336 ft 459 kts 110°
2026-05-07 22:52 33.13591 -112.52455 26088 ft 461 kts 111°
2026-05-07 22:52 33.12204 -112.49004 24815 ft 462 kts 111°
2026-05-07 22:53 33.10810 -112.45546 23577 ft 464 kts 111°
2026-05-07 22:53 33.09421 -112.42111 22525 ft 451 kts 112°
2026-05-07 22:53 33.08081 -112.38821 20758 ft 434 kts 112°
2026-05-07 22:53 33.06776 -112.35621 18990 ft 423 kts 112°
2026-05-07 22:54 33.05481 -112.32431 17784 ft 425 kts 112°
2026-05-07 22:54 33.04204 -112.29281 16705 ft 419 kts 113°
2026-05-07 22:54 33.02946 -112.26174 15672 ft 414 kts 113°
2026-05-07 22:54 33.01702 -112.23095 14691 ft 409 kts 113°
2026-05-07 22:55 33.00473 -112.20053 13786 ft 406 kts 113°
2026-05-07 22:55 32.99255 -112.17040 12842 ft 402 kts 114°
2026-05-07 22:55 32.98081 -112.14144 12577 ft 381 kts 114°
2026-05-07 22:55 32.96961 -112.11398 12443 ft 358 kts 114°
2026-05-07 22:56 32.95906 -112.08812 12323 ft 338 kts 115°
2026-05-07 22:56 32.94902 -112.06351 12191 ft 323 kts 115°
2026-05-07 22:56 32.93940 -112.03994 12066 ft 310 kts 115°
2026-05-07 22:56 32.93015 -112.01723 11844 ft 302 kts 114°
2026-05-07 22:57 32.92101 -111.99483 11491 ft 299 kts 115°
2026-05-07 22:57 32.91214 -111.97317 11125 ft 298 kts 115°
2026-05-07 22:57 32.90265 -111.95048 10606 ft 301 kts 118°
2026-05-07 22:57 32.89079 -111.92946 10111 ft 305 kts 125°
2026-05-07 22:58 32.87840 -111.90935 9870 ft 298 kts 125°
2026-05-07 22:58 32.86631 -111.88979 9506 ft 296 kts 125°
2026-05-07 22:58 32.85414 -111.87006 9121 ft 295 kts 125°
2026-05-07 22:58 32.84198 -111.85038 8741 ft 294 kts 125°
2026-05-07 22:59 32.82990 -111.83082 8367 ft 292 kts 125°
2026-05-07 22:59 32.81789 -111.81138 7990 ft 291 kts 125°
2026-05-07 22:59 32.80593 -111.79203 7628 ft 289 kts 125°
2026-05-07 22:59 32.79404 -111.77278 7272 ft 287 kts 125°
2026-05-07 23:00 32.78239 -111.75387 6897 ft 287 kts 125°
2026-05-07 23:00 32.77060 -111.73471 6490 ft 288 kts 125°
2026-05-07 23:00 32.75872 -111.71541 6093 ft 289 kts 125°
2026-05-07 23:00 32.74682 -111.69612 5695 ft 289 kts 125°
2026-05-07 23:01 32.73498 -111.67690 5278 ft 289 kts 125°
2026-05-07 23:01 32.72316 -111.65766 4935 ft 287 kts 125°
2026-05-07 23:01 32.71140 -111.63851 4576 ft 286 kts 125°
2026-05-07 23:01 32.69970 -111.61944 4178 ft 285 kts 125°
2026-05-07 23:02 32.68811 -111.60055 3939 ft 283 kts 125°
2026-05-07 23:02 32.67652 -111.58161 3879 ft 284 kts 125°
2026-05-07 23:02 32.66479 -111.56256 3854 ft 285 kts 126°
2026-05-07 23:02 32.65261 -111.54369 3919 ft 305 kts 128°
2026-05-07 23:03 32.63934 -111.52443 3977 ft 293 kts 129°
2026-05-07 23:03 32.62614 -111.50650 4006 ft 287 kts 131°
2026-05-07 23:03 32.61331 -111.48837 4094 ft 286 kts 128°
2026-05-07 23:03 32.60150 -111.46953 4132 ft 284 kts 125°
2026-05-07 23:04 32.59027 -111.45118 4140 ft 271 kts 126°
2026-05-07 23:04 32.57951 -111.43363 4128 ft 256 kts 124°
2026-05-07 23:04 32.56999 -111.41646 4077 ft 241 kts 118°
2026-05-07 23:04 32.56144 -111.39979 3984 ft 232 kts 119°
2026-05-07 23:05 32.55289 -111.38393 3885 ft 225 kts 121°
2026-05-07 23:05 32.54435 -111.36847 3677 ft 224 kts 123°
2026-05-07 23:05 32.53517 -111.35352 3417 ft 224 kts 126°
2026-05-07 23:05 32.52648 -111.33896 3333 ft 210 kts 113°
2026-05-07 23:06 32.52159 -111.32337 3366 ft 199 kts 108°
2026-05-07 23:06 32.51560 -111.30877 3237 ft 193 kts 120°
2026-05-07 23:06 32.50781 -111.29614 3174 ft 189 kts 128°
2026-05-07 23:06 32.49883 -111.28486 3149 ft 182 kts 135°
2026-05-07 23:07 32.48988 -111.27528 3126 ft 166 kts 136°
2026-05-07 23:07 32.48189 -111.26646 3054 ft 152 kts 136°
2026-05-07 23:07 32.47425 -111.25819 2966 ft 144 kts 139°
2026-05-07 23:07 32.46715 -111.25040 2947 ft 139 kts 135°
2026-05-07 23:08 32.45991 -111.24294 2886 ft 138 kts 138°
2026-05-07 23:08 32.45173 -111.23710 2918 ft 139 kts 170°
2026-05-07 23:08 32.44273 -111.23976 2983 ft 136 kts 231°
2026-05-07 23:08 32.44140 -111.24966 2983 ft 124 kts 307°
2026-05-07 23:09 32.44762 -111.25615 2991 ft 120 kts 325°
2026-05-07 23:09 32.45421 -111.26238 2971 ft 123 kts 322°
2026-05-07 23:09 32.46069 -111.26888 2835 ft 123 kts 321°
2026-05-07 23:09 32.46706 -111.27549 2758 ft 122 kts 322°
2026-05-07 23:10 32.47322 -111.28248 2710 ft 122 kts 314°
2026-05-07 23:10 32.47915 -111.28960 2545 ft 121 kts 317°
2026-05-07 23:10 32.48512 -111.29676 2377 ft 124 kts 316°
2026-05-07 23:10 32.49119 -111.30382 2279 ft 121 kts 318°
2026-05-07 23:11 32.49742 -111.31073 2090 ft 123 kts 317°
2026-05-07 23:11 32.50336 -111.31774 1931 ft 121 kts 319°
2026-05-07 23:11 32.50904 -111.32436 1891 ft 90 kts 315°
2026-05-07 23:11 32.51134 -111.32705 1889 ft 11 kts 315°
2026-05-07 23:12 32.51200 -111.32783 1891 ft 16 kts 315°
2026-05-07 23:12 32.51296 -111.32892 1888 ft 22 kts 315°
2026-05-07 23:12 32.51418 -111.33030 1886 ft 27 kts 317°
2026-05-07 23:12 32.51562 -111.33208 1886 ft 31 kts 313°
2026-05-07 23:13 32.51727 -111.33271 1885 ft 17 kts 36°
2026-05-07 23:13 32.51732 -111.33206 1877 ft 7 kts 111°
2026-05-07 23:13 32.51682 -111.33125 1886 ft 18 kts 134°
2026-05-07 23:13 32.51568 -111.32988 1888 ft 27 kts 135°
2026-05-07 23:14 32.51426 -111.32818 1890 ft 31 kts 134°
2026-05-07 23:14 32.51273 -111.32636 1885 ft 28 kts 135°
2026-05-07 23:14 32.51148 -111.32487 1883 ft 26 kts 135°
2026-05-07 23:14 32.51024 -111.32336 1888 ft 18 kts 134°
2026-05-07 23:15 32.50974 -111.32261 1886 ft 10 kts 89°
2026-05-07 23:15 32.51047 -111.32229 1892 ft 14 kts 21°
2026-05-07 23:15 32.51075 -111.32196 1887 ft 0 kts 54°